Jackson, MS

9:09 PM CDT on June 25, 2017 (GMT -0500)
Jackson-Evers International

Weather History for KJAN - October, 2011

Change the Weather History Date:

Wednesday, October 26, 2011

  Actual Average Record
Temperature  
Mean Temperature 64 °F 62 °F  
Max Temperature 80 °F 74 °F 92 °F (1927)
Min Temperature 48 °F 50 °F 30 °F (1955)
Degree Days  
Heating Degree Days 1 5  
Month to date heating degree days 81 72  
Since 1 July heating degree days 81 79  
Cooling Degree Days 0 2  
Month to date cooling degree days 53 96  
Year to date cooling degree days 2640 2222  
Growing Degree Days 15 (Base 50)    
Moisture  
Dew Point 52 °F    
Average Humidity 65    
Maximum Humidity 96    
Minimum Humidity 33    
Precipitation  
Precipitation 0.00 in 0.14 in 2.54 in (1932)
Month to date precipitation 0.75 3.29  
Year to date precipitation 39.09 43.60  
Sea Level Pressure  
Sea Level Pressure 30.01 in    
Wind  
Wind Speed 3 mph (SSE)    
Max Wind Speed 10 mph    
Max Gust Speed 16 mph    
Visibility 9 miles    
Events      
T = Trace of Precipitation, MM = Missing Value Source: NWS Daily Summary

Daily Weather History Graph

Daily Weather History Graph

Search for Another Location

Airport or City:

Trip Planner

Search our weather history database for the weather conditions in past years. The results will help you decide how hot, cold, wet, or windy it might be!

Date:

Astronomy

Oct. 26, 2011 Rise Set
Actual Time 7:12 AM CDT 6:15 PM CDT
Civil Twilight 6:47 AM CDT 6:40 PM CDT
Nautical Twilight 6:18 AM CDT 7:09 PM CDT
Astronomical Twilight 5:49 AM CDT 7:38 PM CDT
Moon 6:57 AM CDT 6:02 PM CDT
Length of Visible Light 11h 53m
Length of Day
11h 03m
Waning Crescent, 0% of the Moon is Illuminated
Oct 26
Waning Crescent
Oct 26
New
Nov 2
First Quarter
Nov 10
Full
Nov 18
Last Quarter

Hourly Weather History & Observations

Time (CDT) Temp. Dew Point Humidity Pressure Visibility Wind Dir Wind Speed Gust Speed Precip Events Conditions
12:54 AM 59.0 °F 52.0 °F 78% 30.08 in 10.0 mi Calm Calm - N/A   Clear
1:54 AM 60.1 °F 53.1 °F 78% 30.07 in 10.0 mi Calm Calm - N/A   Clear
2:54 AM 55.0 °F 52.0 °F 89% 30.06 in 10.0 mi Calm Calm - N/A   Clear
3:54 AM 53.1 °F 51.1 °F 93% 30.06 in 10.0 mi Calm Calm - N/A   Partly Cloudy
4:54 AM 51.1 °F 50.0 °F 96% 30.06 in 6.0 mi Calm Calm - N/A   Partly Cloudy
5:54 AM 51.1 °F 50.0 °F 96% 30.07 in 7.0 mi Calm Calm - N/A   Partly Cloudy
6:21 AM 50.0 °F 48.2 °F 94% 30.07 in 7.0 mi Calm Calm - N/A   Partly Cloudy
6:54 AM 50.0 °F 48.9 °F 96% 30.07 in 7.0 mi Calm Calm - N/A   Partly Cloudy
7:54 AM 51.1 °F 48.9 °F 92% 30.07 in 7.0 mi Calm Calm - N/A   Clear
8:54 AM 62.1 °F 55.9 °F 80% 30.09 in 10.0 mi Calm Calm - N/A   Clear
9:54 AM 68.0 °F 55.9 °F 65% 30.08 in 10.0 mi South 6.9 mph - N/A   Clear
10:54 AM 73.0 °F 57.0 °F 57% 30.08 in 10.0 mi Variable 4.6 mph - N/A   Clear
11:54 AM 75.0 °F 54.0 °F 48% 30.06 in 10.0 mi Variable 6.9 mph - N/A   Partly Cloudy
12:54 PM 77.0 °F 54.0 °F 45% 30.02 in 10.0 mi Variable 4.6 mph - N/A   Clear
1:54 PM 78.8 °F 53.6 °F 42% 29.99 in 10.0 mi Variable 4.6 mph - N/A   Clear
2:54 PM 80.1 °F 48.9 °F 34% 29.96 in 10.0 mi SSE 8.1 mph - N/A   Clear
3:54 PM 80.1 °F 51.1 °F 36% 29.94 in 10.0 mi Variable 3.5 mph - N/A   Clear
4:54 PM 79.0 °F 50.0 °F 36% 29.93 in 10.0 mi Calm Calm - N/A   Clear
5:54 PM 73.9 °F 52.0 °F 46% 29.92 in 10.0 mi South 3.5 mph - N/A   Clear
6:54 PM 66.2 °F 53.6 °F 64% 29.93 in 10.0 mi SSE 6.9 mph - N/A   Clear
7:54 PM 64.9 °F 53.1 °F 65% 29.93 in 10.0 mi SSE 6.9 mph - N/A   Clear
8:54 PM 64.0 °F 54.0 °F 70% 29.93 in 10.0 mi SSE 5.8 mph - N/A   Clear
9:54 PM 63.0 °F 54.0 °F 72% 29.94 in 10.0 mi Calm Calm - N/A   Clear
10:54 PM 62.6 °F 53.6 °F 72% 29.95 in 10.0 mi South 3.5 mph - N/A   Clear
11:54 PM 62.6 °F 53.6 °F 72% 29.94 in 10.0 mi South 5.8 mph - N/A   Clear